Voltar ao catálogo

COSMOS 2154

AtivoMilitarPO
NORAD 21666·PAYLOAD·🇷🇺 Russia

Lançado Aug 22, 1991 de Plesetsk Cosmodrome

Loading…

Próximas Passagens (próximas 24 horas)

TLE

AtualizadoSource: Space-Track

Época: Sep 14, 2026, 09:08 UTC

1 21666U 91059A   26257.38078347  .00000037  00000-0  24267-4 0  9992
2 21666  82.9063  43.1269 0024259 327.2648  61.2371 13.73544386757081

Acompanhe COSMOS 2154 em tempo real com AllMySat

Download on the App Store